Lid_Strength_Index
5 4 3 3 3 2 3 4 4 4 3 3 1 0 0 0 0 1 0 -1 2 4 3 2 3 4 4 4 6 5 5 5 5 8 8 10 10 9 10 9 10 10 11 11 10 11 13 5 6 9 7 5 4 4
4 4 4 3 3 2 3 4 4 3 3 3 2 0 0 0 0 1 2 -1 -1 3 3 1 1 1 2 2 4 4 5 5 5 6 6 8 9 8 9 13 6 11 9 11 10 11 6 4 5 4 4 4 4 4
4 4 3 3 3 3 3 4 4 3 3 4 2 1 0 0 0 1 1 -0 1 3 3 3 3 1 0 1 0 5 4 3 4 3 5 6 9 7 11 10 9 7 5 9 8 7 6 5 4 3 3 4 3 3
4 4 4 3 3 3 3 4 4 4 5 4 3 1 1 1 1 1 1 -0 1 3 5 5 1 2 0 0 1 1 2 2 2 3 5 6 8 5 8 8 8 7 6 7 8 6 5 4 4 4 3 3 3 3
3 4 4 4 3 3 2 3 4 5 5 5 2 2 1 1 1 1 -0 -1 -1 3 7 5 2 1 1 1 2 1 2 3 4 6 6 7 6 6 6 6 7 5 6 8 9 5 5 5 3 3 3 4 3 3
3 4 4 3 2 2 2 4 4 4 5 5 3 2 2 1 1 1 3 -0 -1 -0 4 7 2 3 2 1 2 2 3 3 4 6 7 5 4 6 9 11 6 5 4 4 5 4 3 3 3 2 3 3 2 3
3 4 3 3 2 2 3 4 4 5 5 5 4 3 2 2 1 2 4 2 2 -0 4 7 6 3 2 2 2 3 2 4 4 6 7 6 6 6 8 13 6 5 4 4 3 3 4 4 4 2 2 2 2 2
4 3 3 3 2 3 3 4 5 5 5 5 3 2 2 2 3 2 -0 2 1 2 3 7 7 5 2 5 5 3 4 4 4 5 5 7 6 7 12 7 5 5 4 4 4 3 3 3 2 3 2 2 3 3
4 3 3 3 3 3 4 5 5 5 5 4 2 2 1 1 3 2 0 0 -1 2 7 5 7 9 3 4 4 4 5 8 4 7 7 6 10 12 8 6 6 5 5 5 4 4 4 4 4 3 3 3 3 3
4 3 3 3 3 4 5 5 6 5 5 3 2 2 5 2 2 1 1 3 3 3 3 6 4 6 4 4 6 5 5 7 10 8 5 9 10 6 5 4 4 4 4 4 6 6 5 5 4 4 4 3 3 3
4 4 3 3 3 5 6 5 5 5 5 1 3 4 1 1 1 3 6 6 5 7 5 5 5 6 3 6 7 5 7 7 11 9 10 10 10 6 4 4 3 4 3 3 3 3 3 3 4 4 4 3 3 3
4 5 4 4 5 6 6 6 5 5 1 3 2 0 0 3 5 7 7 6 6 8 5 6 6 4 4 3 5 5 8 7 11 6 9 13 7 5 4 4 3 3 3 3 2 3 3 3 3 3 3 3 2 2
4 5 5 5 5 5 5 6 6 5 3 -0 2 4 6 6 12 10 10 9 8 5 5 5 6 4 4 4 5 6 9 9 6 9 11 8 5 4 4 3 3 3 3 3 3 3 3 3 2 3 3 2 2 2
5 5 5 5 5 5 5 6 5 4 2 4 5 12 9 10 8 7 7 6 4 4 4 4 5 6 4 5 5 8 7 6 9 12 10 8 5 4 3 2 3 3 3 3 3 3 3 2 3 2 3 2 3 3
5 5 5 5 5 4 4 5 5 3 2 5 5 12 8 6 6 5 4 4 3 3 4 5 4 4 6 7 6 6 8 10 9 10 7 6 4 3 3 3 3 3 3 3 3 3 3 2 2 2 2 1 2 2
4 3 2 4 4 4 5 5 5 0 2 4 4 6 5 7 8 5 5 5 3 4 3 4 6 7 7 6 8 8 9 9 7 6 5 4 4 3 3 3 2 2 2 2 2 2 2 2 2 2 1 1 2 2
4 1 4 4 4 5 4 2 1 3 4 5 5 3 4 5 6 6 6 4 3 4 8 6 9 9 6 7 8 6 7 6 4 4 4 4 3 3 3 2 2 2 2 2 2 2 2 2 2 2 3 2 1 1
2 2 4 4 4 2 1 1 3 4 6 4 5 4 4 3 5 5 4 4 4 6 5 7 5 8 9 9 8 5 4 4 3 3 3 3 2 2 2 2 2 2 2 2 2 2 2 2 3 3 2 2 2 2
4 3 4 4 4 3 3 3 2 6 5 4 3 3 3 3 3 4 3 4 4 3 4 6 8 8 8 6 6 4 4 3 4 3 3 2 2 2 2 2 2 2 2 2 2 2 2 2 2 2 2 2 3 2
4 3 3 4 4 2 4 4 2 4 6 5 3 4 4 4 3 4 5 4 4 4 6 7 7 5 5 4 3 3 3 2 3 4 4 3 2 2 2 2 2 1 2 1 2 3 2 2 2 2 2 2 2 3
4 2 3 3 3 2 3 4 4 4 4 5 4 4 5 4 5 6 6 3 6 7 7 5 4 4 2 2 2 2 2 2 3 3 3 4 2 2 2 2 1 2 2 2 3 3 3 3 2 2 2 2 2 2
1 3 1 2 3 2 4 2 4 3 4 5 4 4 6 6 6 6 4 6 6 6 4 5 4 4 4 3 3 2 2 2 2 2 4 4 3 2 3 3 2 2 2 2 2 2 2 1 1 1 1 1 1 1
4 2 2 2 4 6 7 2 5 4 6 5 4 6 6 5 6 4 6 5 6 3 3 4 3 2 3 2 2 2 1 2 3 2 3 3 3 2 2 2 2 2 2 2 1 1 2 2 2 1 2 1 1 1
4 3 4 5 5 8 4 5 4 5 5 6 7 8 7 6 5 7 8 6 5 3 3 3 3 3 3 3 3 3 2 2 2 3 3 4 3 2 2 2 2 2 1 1 1 1 1 1 2 1 2 2 2 2
7 7 6 10 5 7 7 6 6 6 8 7 8 9 8 5 8 8 8 7 6 6 3 3 3 3 4 4 3 3 1 4 4 4 4 3 3 2 2 2 3 2 1 1 2 1 1 1 1 1 1 1 2 2
10 5 9 6 6 7 6 7 8 8 8 8 9 6 5 8 10 10 8 6 6 5 3 3 4 4 3 3 5 5 5 4 3 4 4 3 3 2 3 3 4 3 1 1 2 1 1 1 1 1 1 2 4 1
10 7 4 3 4 5 6 5 5 6 8 9 8 9 7 10 10 8 6 4 4 3 2 2 2 3 5 6 5 4 4 3 4 4 3 3 2 1 1 3 3 3 1 1 1 1 1 1 1 1 1 1 1 1
5 5 6 5 5 4 6 6 6 7 6 5 6 8 9 9 10 6 4 2 2 3 3 3 4 5 5 4 4 5 4 4 4 3 3 3 2 2 1 1 2 6 2 1 1 1 1 1 1 1 1 2 0 -0
5 4 4 6 6 6 6 6 6 4 3 4 6 6 7 6 4 3 2 2 2 3 5 5 5 4 4 4 4 4 4 5 5 6 6 5 5 4 2 2 3 3 2 2 7 4 2 2 1 1 1 1 0 0
5 4 6 6 7 7 5 4 4 3 2 3 2 3 3 4 2 1 1 2 3 4 4 4 4 5 5 5 6 5 4 4 4 5 5 5 4 3 3 2 1 2 2 2 2 2 5 3 3 1 2 1 1 1
4 4 5 6 6 5 4 3 2 2 2 3 2 3 5 4 2 1 1 1 2 4 4 4 5 5 5 6 6 6 6 5 4 3 3 2 3 3 3 2 1 1 2 2 2 1 1 2 2 2 2 2 2 2
5 5 6 7 6 3 3 3 4 4 3 4 4 4 4 5 5 4 2 3 4 4 4 3 4 5 4 4 4 5 7 4 4 3 2 2 2 2 2 2 2 1 2 2 2 2 1 1 2 2 2 2 2 1
5 5 5 5 5 5 4 4 5 5 6 6 6 5 5 5 7 4 3 2 3 3 3 2 2 2 2 3 3 4 4 3 6 8 6 6 6 4 3 3 2 1 2 2 2 2 2 2 1 2 2 2 2 2